RH
90 90 88 84 78 68 68 77 84 86 86 88 89 88 87 87 85 82 81 80 78 78 75 77 84 88 86 81 83 86 83 74 60 54 45 32 30 26 20 21 18 17 18 19 23 20 15 13 12 13 12 12 11 11 12 10 10 9 10 10 9 7 5 6 5 5 5 6 8 7 8 8 8 23 34 25 17 25 32 32 35 41 44 42 48 59 74 85
89 89 88 87 85 79 71 73 80 84 84 85 87 89 90 89 88 84 80 79 80 76 74 78 82 87 86 79 81 85 77 65 52 43 36 28 24 19 16 17 18 15 17 21 20 15 13 10 10 12 10 10 11 11 11 10 10 10 10 10 8 6 5 6 5 5 6 6 8 7 8 8 9 23 33 22 17 29 36 41 45 49 53 50 56 66 76 81
87 87 87 87 85 78 74 76 78 79 81 83 84 88 93 92 90 86 80 79 78 75 75 76 78 85 85 79 79 77 67 55 40 31 34 39 34 25 20 18 16 13 16 19 17 15 14 11 10 10 9 9 10 11 11 11 11 9 9 11 8 6 8 7 6 6 6 7 8 9 8 8 19 31 31 23 25 35 37 41 46 51 55 52 59 69 74 77
87 86 85 86 85 79 80 84 83 78 78 83 82 83 91 94 92 89 83 79 77 78 78 75 79 86 87 86 77 70 60 40 26 29 39 41 36 31 25 23 19 13 17 21 17 18 17 13 10 8 8 8 9 11 11 12 11 8 10 11 7 8 10 7 6 7 7 9 9 10 7 12 32 39 32 27 32 37 33 36 40 44 52 56 64 69 70 74
88 88 86 87 87 85 87 90 90 84 80 82 82 77 81 92 94 93 88 80 78 82 81 78 83 89 92 89 75 67 51 23 18 32 36 30 26 27 26 29 27 17 19 21 17 18 18 14 9 8 9 7 9 11 10 11 10 11 13 9 8 11 9 7 8 7 9 10 9 10 7 14 32 39 37 30 30 34 31 35 40 42 50 58 65 67 67 69
85 88 89 88 87 88 88 89 91 89 82 78 81 80 78 86 93 95 92 84 81 81 81 81 84 89 92 84 71 62 43 19 21 31 28 25 25 22 24 27 27 29 27 19 15 16 16 13 9 10 9 7 9 10 9 10 10 13 13 9 11 13 9 9 10 9 10 10 9 10 7 10 20 33 39 30 31 42 39 38 42 44 52 60 65 65 65 66
82 85 87 88 87 87 87 88 88 89 87 78 79 85 84 84 91 96 95 89 85 81 82 83 83 89 90 76 61 54 42 27 25 29 25 26 25 21 32 38 33 41 33 15 12 14 15 14 10 9 8 8 10 9 8 9 12 12 10 11 13 12 11 10 10 10 10 10 10 9 8 9 11 26 39 33 40 50 44 41 43 47 56 64 66 63 64 67
83 83 82 85 87 87 87 88 87 89 91 82 76 84 85 84 90 94 93 92 87 84 86 83 82 89 88 70 51 44 38 27 24 29 26 26 25 23 44 64 56 44 28 12 10 12 14 14 10 8 8 8 9 9 9 11 13 11 9 11 12 11 11 10 9 10 10 10 10 7 11 14 10 22 39 42 49 52 45 44 47 54 63 67 67 65 66 69
86 84 81 80 82 85 87 88 88 88 91 86 77 78 81 81 89 93 92 92 88 88 88 83 82 84 83 66 50 42 29 23 26 30 29 28 28 23 36 61 60 40 22 11 9 11 14 13 9 8 7 7 9 9 11 11 11 10 9 10 12 12 11 10 9 10 10 9 8 11 22 28 23 28 45 55 56 53 49 48 51 59 67 67 66 67 69 72
89 85 83 81 79 80 84 87 89 88 90 89 79 76 78 78 85 92 95 94 90 92 86 78 80 80 73 58 51 43 23 25 34 33 35 32 27 24 26 44 52 36 19 10 8 10 13 12 8 8 8 8 9 9 11 10 9 10 9 10 12 11 10 11 10 10 9 9 8 14 29 39 37 36 52 66 63 56 55 56 56 61 64 64 66 70 73 77
90 87 85 83 81 80 82 85 87 89 90 90 83 78 77 75 80 91 97 96 93 94 86 76 78 77 65 54 53 44 23 28 37 33 36 33 28 27 24 32 43 36 19 10 8 9 12 11 8 8 9 9 8 9 10 9 9 11 10 11 12 10 10 11 11 10 8 9 8 13 31 43 42 43 58 70 66 60 61 62 61 60 61 65 72 78 78 82
87 88 88 85 84 84 84 84 85 88 89 91 89 83 79 76 79 90 95 97 96 93 88 83 80 72 61 54 50 43 32 31 34 32 33 32 30 28 24 25 36 37 22 10 8 9 12 11 9 8 7 8 8 9 10 9 10 11 10 11 11 10 11 10 9 9 8 9 8 16 32 41 47 57 65 68 68 67 68 69 68 67 68 74 83 86 85 89
83 85 90 89 87 87 86 86 86 86 88 90 91 85 81 78 79 88 94 97 97 92 89 85 76 66 61 56 47 42 40 36 35 37 34 33 30 26 24 23 32 39 25 11 8 8 11 11 10 8 8 9 8 9 10 8 10 10 9 9 9 10 9 8 9 8 8 9 13 21 28 41 61 72 70 66 68 72 75 74 73 75 77 80 82 80 81 87
85 85 89 90 90 90 87 87 87 86 87 88 91 86 79 78 77 84 92 95 97 96 91 85 75 65 60 54 45 42 42 39 40 39 34 30 27 22 19 21 32 40 28 14 9 9 11 10 10 9 9 10 8 9 9 9 9 8 9 9 9 9 7 7 8 8 10 13 20 23 24 45 74 84 80 73 66 65 72 76 76 77 76 72 69 68 71 77
87 85 86 88 90 90 88 87 86 85 86 88 92 86 78 79 79 83 93 95 97 98 92 84 74 63 55 46 39 38 38 39 39 34 29 27 25 20 16 20 32 36 26 16 11 10 10 9 11 11 10 10 9 9 9 10 9 7 10 11 9 9 7 8 8 7 9 16 26 25 27 54 83 91 85 73 62 62 70 76 79 80 76 70 68 68 71 74
85 86 86 88 89 88 89 89 87 87 87 88 92 85 75 77 79 85 93 96 98 97 92 81 67 60 54 41 32 31 31 31 31 27 25 26 25 20 15 20 28 28 20 15 12 11 10 10 10 10 9 10 10 9 9 10 10 8 10 11 10 9 8 8 8 7 8 17 26 21 25 56 86 92 79 65 61 65 70 74 78 82 80 76 73 72 74 74
85 86 88 89 89 87 87 89 90 90 89 89 90 84 78 77 80 86 90 96 99 96 89 71 57 58 52 39 31 27 26 26 26 26 25 24 25 21 17 19 22 19 15 13 13 11 11 11 11 11 10 10 10 8 11 13 13 11 10 11 10 8 8 9 9 9 11 15 19 20 31 58 82 83 71 65 65 66 69 70 72 73 75 77 74 70 72 74
86 88 89 88 89 88 87 89 90 90 90 91 87 81 76 72 76 85 88 95 98 95 91 75 62 60 48 39 34 27 27 29 27 27 24 22 24 22 18 19 18 15 14 14 14 13 13 12 11 13 11 10 10 10 12 13 12 12 11 11 12 9 7 9 9 11 13 14 19 32 50 68 78 75 69 70 72 71 68 64 63 62 65 72 72 71 72 75
87 89 89 89 90 89 89 89 89 88 89 88 84 78 75 72 78 84 84 94 98 89 84 77 69 57 38 31 29 26 29 30 26 24 21 20 22 22 18 18 17 15 15 16 16 15 14 14 13 13 12 12 11 10 11 10 9 11 10 10 12 9 8 10 13 17 14 14 23 34 50 63 65 68 75 77 73 68 64 60 59 56 56 60 66 75 81 83
86 88 89 89 90 90 89 89 88 87 87 87 83 76 69 65 68 68 72 87 89 73 63 59 56 46 33 26 23 27 30 26 24 23 22 21 21 20 17 16 17 15 14 15 18 17 14 17 16 13 12 11 11 10 9 10 10 10 9 9 9 7 11 15 19 26 20 17 29 35 44 52 51 63 77 76 67 61 60 59 56 54 51 51 59 74 86 91
87 88 88 89 91 91 90 90 89 87 86 88 84 71 55 48 52 56 62 70 65 59 58 52 47 41 36 32 27 31 33 26 24 23 22 24 21 18 17 17 18 17 14 14 17 16 15 18 15 11 11 9 9 10 10 12 11 10 9 9 9 8 16 20 20 28 25 27 43 44 43 47 50 67 77 70 64 60 57 57 56 56 55 57 66 78 85 89
90 86 86 90 90 90 91 91 90 87 86 87 82 66 47 45 58 66 66 63 53 50 55 56 53 44 38 38 35 37 37 31 26 20 19 23 20 17 18 18 18 16 13 13 16 18 18 18 13 9 9 8 9 11 12 14 11 10 10 8 9 12 22 26 23 24 21 28 46 46 48 56 60 71 74 67 64 60 57 56 58 62 66 72 78 80 79 77
91 87 86 87 88 92 94 89 87 89 87 82 77 63 50 56 70 74 70 64 53 45 50 59 57 47 41 38 36 39 37 30 27 20 18 22 19 16 18 18 18 15 13 14 17 20 20 16 11 8 8 9 12 13 13 14 11 11 10 8 11 16 20 22 26 27 22 27 42 48 59 69 71 73 70 68 70 67 65 63 61 62 66 71 72 71 71 72
91 90 86 83 90 94 91 87 87 90 83 76 75 64 62 74 76 73 73 66 55 45 45 50 46 42 40 34 35 40 34 25 25 23 19 21 19 15 17 18 17 14 12 14 14 16 15 11 9 8 8 10 11 13 12 13 13 12 11 9 10 13 14 19 27 29 28 33 42 46 55 64 70 76 74 72 75 75 73 70 65 61 62 66 68 69 70 73
93 93 88 86 92 91 89 85 78 79 76 71 69 62 69 84 81 79 83 75 58 43 38 40 39 37 34 32 35 34 30 25 22 21 19 21 19 15 17 16 16 17 15 14 13 12 11 9 9 9 9 9 9 11 12 13 13 13 13 10 8 13 19 26 27 26 33 44 43 33 37 52 63 71 76 73 73 75 73 69 65 64 63 65 70 75 75 76
95 93 91 89 89 89 87 75 67 72 69 64 64 65 73 83 84 86 87 74 52 37 39 40 36 33 31 34 33 26 28 28 21 19 20 21 19 15 18 16 16 19 15 12 12 11 11 10 10 10 9 8 9 10 11 12 13 14 13 9 11 18 23 26 23 22 28 36 39 27 27 53 66 66 70 68 69 75 73 68 66 64 63 65 70 75 77 79
96 94 93 88 84 89 83 69 71 73 66 66 72 73 77 82 88 91 89 77 50 33 38 37 30 30 30 30 27 25 29 24 18 18 18 21 21 16 18 18 18 17 12 13 15 13 14 12 10 9 8 8 9 9 9 11 13 14 11 9 15 20 22 22 19 19 19 24 38 33 27 49 62 60 62 63 68 79 77 70 67 63 61 65 69 72 76 79
95 94 96 88 82 88 85 76 75 71 71 79 79 80 83 85 90 88 84 75 48 28 34 36 31 27 26 26 24 22 22 17 17 20 17 19 21 17 18 19 18 18 14 14 17 17 15 13 10 9 9 9 8 8 8 9 12 12 10 9 12 16 20 18 15 17 20 27 39 34 24 33 43 50 59 63 69 78 78 72 68 62 58 61 68 72 76 79
92 96 95 84 82 89 92 90 83 77 85 89 82 83 85 86 93 90 82 71 44 26 30 34 33 30 28 29 25 19 17 16 16 18 18 20 20 18 18 17 17 20 18 13 15 18 15 12 9 9 9 9 7 7 8 9 11 11 10 10 12 15 17 16 14 17 23 30 32 30 25 22 34 53 59 62 67 69 69 69 65 59 54 57 65 71 76 78
88 96 88 75 85 94 93 92 87 81 86 92 91 88 84 89 95 90 83 70 45 30 30 32 33 33 34 33 27 19 17 18 17 18 20 20 19 17 15 15 16 20 20 14 14 17 14 11 9 8 9 7 7 7 8 8 9 10 12 12 14 15 15 15 16 18 25 28 23 25 25 16 32 57 56 54 58 54 57 64 64 59 55 58 65 69 74 78
80 90 84 76 88 94 89 88 86 82 86 95 96 90 91 94 88 79 75 69 55 40 32 33 33 33 35 33 27 20 17 19 19 20 22 20 20 18 16 19 20 21 23 18 17 18 15 14 11 9 8 7 8 8 8 7 8 11 12 12 15 16 17 18 18 22 25 22 15 19 25 19 26 44 46 45 45 41 48 60 65 62 56 59 66 70 75 78
76 82 79 78 85 89 92 90 83 85 93 98 95 89 91 91 83 74 65 67 75 59 34 30 35 35 34 28 20 18 20 21 19 19 22 21 21 19 19 22 23 26 28 23 22 21 18 15 12 12 11 9 10 9 8 8 8 10 10 12 18 19 21 23 21 23 21 19 17 16 24 25 20 28 37 40 40 39 43 50 59 61 57 60 69 74 78 79
75 77 76 80 84 86 91 85 79 87 92 94 95 89 87 86 78 68 62 73 91 79 45 32 33 34 32 24 18 18 20 21 19 18 20 19 20 19 17 18 19 24 27 25 24 23 21 18 14 15 14 10 9 9 11 11 9 10 10 14 17 19 26 28 24 23 20 21 23 19 25 26 18 28 39 35 35 39 40 44 52 58 60 66 71 75 80 79
78 77 76 80 82 83 83 77 79 89 88 88 92 86 82 80 69 66 76 87 89 76 52 36 34 35 32 23 17 18 21 22 19 18 19 19 21 21 18 17 17 18 21 24 23 21 26 28 20 16 15 11 9 8 9 10 9 8 8 11 15 16 22 25 22 20 18 22 27 27 28 22 21 43 51 39 33 35 38 43 50 57 64 71 74 75 78 79
79 76 74 77 78 79 81 79 82 89 86 87 88 81 76 70 64 73 89 92 85 74 56 39 36 38 32 21 15 16 21 23 19 17 19 20 20 21 18 17 17 16 19 25 24 20 24 25 18 14 13 11 10 8 6 9 10 9 7 9 14 13 14 20 25 24 19 25 34 35 31 27 38 56 56 46 38 35 40 46 52 63 69 72 76 75 75 77
78 76 74 75 73 74 80 81 83 87 89 91 85 71 61 59 68 83 93 95 88 79 68 51 40 38 31 22 18 19 21 21 21 20 20 19 18 18 17 16 16 15 17 22 23 19 19 20 16 16 15 11 10 9 7 9 10 10 9 10 12 10 11 19 28 30 27 29 35 33 31 34 44 52 52 49 42 38 46 51 56 67 72 73 75 75 74 76
74 71 65 63 68 75 78 78 82 87 92 95 84 66 58 61 76 87 92 95 87 79 77 62 43 35 29 23 21 21 22 22 21 22 21 20 19 18 16 15 15 15 14 17 20 17 17 20 17 16 17 13 10 9 8 7 7 10 11 10 10 11 14 16 20 28 27 26 32 33 31 33 33 43 57 53 44 46 53 58 63 70 73 73 75 76 75 75
74 67 58 57 70 80 82 82 85 87 94 94 81 71 71 76 85 89 90 91 83 79 82 65 43 33 25 21 22 20 21 24 23 22 21 21 21 18 16 16 15 14 12 14 18 18 17 21 20 14 15 14 10 10 12 8 6 9 9 8 11 16 18 17 19 27 23 23 35 35 30 29 26 41 62 56 47 53 58 64 71 71 73 73 75 78 76 75
77 66 56 61 78 84 83 86 88 88 94 89 73 68 77 81 81 80 83 86 82 82 83 64 41 33 24 16 19 21 21 23 23 23 23 23 23 19 15 16 15 14 13 12 16 17 16 21 22 14 12 14 12 13 14 11 10 10 8 6 9 13 15 15 18 22 20 21 32 36 36 31 23 35 54 51 48 55 60 68 72 70 70 73 75 78 76 76
72 64 58 69 86 84 81 90 95 92 88 79 67 67 75 77 71 68 73 81 80 77 76 61 40 33 24 15 18 21 20 21 21 22 23 22 24 23 16 14 15 14 14 12 14 16 17 21 23 16 13 15 16 15 13 12 11 11 11 11 11 12 13 16 15 14 16 18 24 40 47 34 21 30 44 46 48 55 59 64 67 68 69 70 75 77 75 75
66 60 58 75 87 84 87 94 92 85 78 71 71 72 71 70 72 72 71 74 75 66 62 59 49 37 24 16 19 21 20 22 21 21 23 20 23 26 17 13 15 13 14 14 14 16 17 19 21 20 19 17 15 13 10 10 10 9 12 12 12 13 14 18 20 15 15 15 18 32 37 27 26 33 37 41 48 53 55 56 60 65 67 70 74 74 72 74
65 58 60 78 85 83 91 93 84 83 81 74 75 79 77 78 85 81 73 74 76 65 55 55 55 43 25 16 19 20 20 21 20 20 22 20 21 23 16 14 14 12 14 15 14 17 18 17 19 21 20 16 13 12 10 10 9 8 10 9 9 12 13 16 21 20 17 15 18 23 21 27 45 48 38 38 45 51 53 52 58 65 67 72 75 71 70 71
69 63 66 82 84 81 91 92 84 86 86 79 80 84 82 85 88 80 74 77 74 63 55 52 51 44 30 19 17 18 20 22 21 19 20 19 18 18 16 15 14 13 15 16 16 19 19 18 20 20 16 13 13 13 11 11 11 11 11 9 8 11 12 12 14 17 19 17 21 24 20 33 57 58 49 45 46 51 54 54 63 70 72 75 75 72 72 70
77 73 72 80 82 83 89 90 86 85 84 83 87 86 79 81 85 80 77 76 67 60 57 51 46 42 33 24 17 16 20 23 21 19 17 17 17 16 15 14 14 15 15 17 17 18 18 18 19 21 21 21 20 18 16 15 15 14 12 10 10 10 12 13 12 17 21 17 19 20 16 34 58 59 53 50 46 50 55 61 71 75 77 79 76 74 75 72
82 82 81 82 81 82 82 82 89 90 85 86 88 85 81 81 81 78 76 70 60 58 59 52 45 39 30 24 20 16 18 21 22 20 17 17 18 17 14 13 15 13 13 18 18 15 17 19 19 22 25 27 26 23 20 17 16 16 14 12 12 10 12 16 16 20 22 16 17 15 15 41 65 59 50 49 48 53 62 70 77 77 79 81 78 77 78 75
82 82 84 85 84 88 84 81 92 95 90 92 90 84 84 82 76 75 76 70 59 56 58 53 45 37 28 24 23 19 17 17 19 19 17 18 19 15 13 14 13 13 19 25 22 15 18 22 20 20 20 20 20 18 16 16 17 18 17 14 13 12 13 16 18 19 18 16 18 14 17 43 65 58 49 48 51 61 70 76 79 79 78 79 79 80 77 74
87 82 84 90 89 87 83 80 90 95 91 93 91 86 85 79 73 74 74 68 60 58 59 53 45 38 28 23 25 24 19 17 18 18 18 22 21 16 14 13 12 20 29 26 18 17 20 22 22 23 23 20 19 20 18 16 17 17 18 18 17 15 15 17 19 17 15 18 21 18 18 32 49 54 51 47 51 63 74 77 77 77 77 78 80 80 76 73
91 84 84 93 91 85 82 81 85 89 88 89 88 86 84 78 76 79 78 67 57 55 58 56 48 40 31 25 27 28 23 20 22 24 24 24 22 18 16 13 12 22 26 16 13 19 20 19 22 25 26 23 24 25 21 17 16 15 17 18 18 19 18 20 21 17 17 21 21 22 22 20 29 45 49 47 49 58 69 74 74 75 77 79 80 79 77 75
93 87 81 84 88 89 88 83 81 85 84 85 87 83 81 82 82 79 74 70 62 55 59 63 53 41 37 31 26 28 32 31 29 30 29 25 23 21 21 18 15 16 16 13 16 20 18 20 23 22 21 23 28 29 24 21 21 19 17 16 16 19 18 20 21 16 19 22 18 23 27 17 22 39 44 44 47 54 64 70 72 75 78 79 78 78 78 77
93 92 88 86 85 84 82 79 79 82 77 75 82 81 77 79 78 69 63 67 72 67 65 67 58 44 40 35 31 41 54 52 42 35 31 32 28 23 22 21 17 15 15 16 22 24 21 23 23 20 19 23 31 33 26 23 25 24 21 16 16 18 17 21 23 19 21 24 19 22 25 21 30 42 42 44 51 57 65 70 73 75 75 76 77 76 76 76
92 92 92 94 88 79 80 80 75 77 76 74 76 75 72 71 67 63 59 58 68 73 67 67 64 53 46 46 49 57 63 63 56 45 38 38 32 25 25 21 17 20 20 20 25 26 23 24 24 22 20 21 28 32 29 27 28 26 24 21 20 21 21 20 20 21 24 24 24 28 24 22 37 48 46 50 56 60 66 70 71 72 71 73 76 75 74 74
95 91 89 93 89 79 82 84 74 73 79 78 73 69 68 65 58 59 62 58 60 66 64 65 67 60 57 63 66 64 60 60 59 50 43 40 32 29 31 23 13 18 23 23 25 23 19 22 24 22 20 21 28 33 31 30 29 27 31 36 31 24 25 27 28 31 29 22 24 27 18 18 38 50 51 56 59 61 66 66 65 67 68 70 71 71 70 68
Wind_Speed
16 15 15 15 15 14 14 14 13 13 12 11 11 11 11 11 11 11 12 13 13 14 15 15 17 17 16 18 18 19 22 21 18 15 15 18 15 15 13 6 6 11 9 7 5 5 8 11 10 11 10 7 6 6 8 8 6 6 6 7 7 8 8 5 8 5 1 4 6 2 3 6 7 2 3 5 9 8 11 9 7 8 7 9 18 27 28 25
16 16 16 16 15 15 14 14 14 13 13 12 12 13 12 11 11 11 11 12 13 13 14 15 16 17 16 18 18 20 22 20 19 19 19 18 14 13 18 16 11 10 9 8 9 9 9 10 12 12 9 7 6 7 9 8 8 8 6 7 8 7 3 3 5 4 3 2 1 3 3 6 8 3 4 8 11 12 12 10 9 10 12 14 20 25 26 25
16 16 16 16 16 16 15 14 14 14 14 13 13 14 13 12 11 11 11 11 12 13 14 14 15 16 16 17 19 20 19 19 16 13 9 5 6 9 14 18 19 15 12 9 9 10 8 7 11 13 9 7 7 8 9 8 9 9 7 7 8 5 2 3 4 3 3 3 5 4 5 7 5 2 5 8 11 13 12 11 12 13 14 15 18 22 25 24
15 16 16 16 16 16 16 15 14 14 14 14 14 14 14 13 12 11 11 11 12 12 12 14 15 15 15 16 19 18 16 15 8 2 5 4 1 2 5 11 18 20 16 11 8 9 7 5 10 12 10 8 8 8 10 9 8 8 8 9 5 3 5 5 5 5 3 4 5 5 7 6 0 2 5 8 11 12 11 11 10 12 16 16 18 20 23 23
16 15 15 15 16 16 16 16 15 15 14 14 14 14 14 14 14 11 10 10 11 11 11 12 14 15 14 15 17 16 12 8 2 8 9 6 5 4 3 6 13 19 19 14 10 9 8 8 10 11 9 8 9 9 10 12 9 6 10 11 4 3 6 4 5 4 2 3 5 5 7 4 1 4 5 9 10 6 5 8 6 9 15 16 17 18 20 20
16 16 15 15 15 16 16 16 16 16 15 14 14 15 14 14 15 13 10 10 11 11 10 11 12 14 14 15 16 12 9 3 4 5 6 9 10 5 8 7 11 17 19 17 13 12 10 11 11 11 10 9 11 11 11 13 11 8 9 11 7 5 5 3 3 2 2 5 6 5 6 5 5 5 5 9 6 4 2 4 6 11 16 17 18 17 17 18
16 16 16 15 15 16 16 16 16 16 16 15 14 14 14 13 14 14 11 9 10 10 10 10 10 13 14 15 13 9 8 9 4 1 3 6 12 10 11 5 12 18 20 20 17 14 12 13 14 11 10 10 11 13 11 12 12 11 8 8 10 9 7 5 4 3 4 6 6 6 6 7 8 4 6 8 5 6 2 5 9 14 18 18 17 15 16 17
16 16 16 16 16 16 16 16 16 16 16 16 15 14 14 13 13 14 12 9 9 9 9 10 9 11 13 12 10 7 9 14 9 7 11 12 12 12 10 1 13 20 22 23 20 16 14 15 15 11 11 10 10 12 11 11 12 14 11 6 7 8 8 8 6 6 6 5 6 6 8 8 7 4 7 7 6 5 5 10 13 16 17 17 16 15 15 15
16 17 17 17 17 16 17 16 16 16 16 16 16 15 14 13 13 13 13 10 8 9 9 9 9 9 10 9 8 7 6 7 9 10 12 12 10 10 6 3 12 18 21 23 22 19 14 13 16 12 10 9 9 11 12 11 9 12 15 8 6 8 6 7 7 7 6 5 5 6 6 3 3 6 6 6 6 6 8 13 15 17 17 16 16 15 14 14
17 17 17 17 17 17 17 16 16 16 16 16 16 16 15 14 13 13 13 11 8 8 8 7 7 7 8 7 7 7 2 3 4 5 7 10 10 9 5 4 11 16 20 22 22 21 15 13 15 9 6 7 9 11 12 12 4 5 14 11 8 9 6 6 6 7 5 5 6 6 3 3 5 7 5 5 5 8 11 13 15 17 17 17 16 14 13 13
16 17 17 17 17 18 17 17 16 16 16 16 15 16 16 15 13 12 13 12 9 8 6 6 6 7 8 7 7 7 2 4 6 9 13 15 13 9 6 5 9 17 19 20 22 22 18 14 13 8 4 5 9 10 12 12 4 2 8 10 11 11 9 8 8 7 6 5 7 7 4 7 6 4 5 7 6 9 13 14 15 16 15 16 15 13 11 12
16 16 16 17 17 17 18 17 16 16 16 15 15 15 15 15 13 12 13 13 10 8 5 5 5 7 9 9 12 14 9 11 16 19 19 17 15 13 10 9 11 17 18 18 21 22 20 14 13 12 4 4 9 8 8 11 8 4 5 7 10 11 10 12 11 9 7 5 6 9 8 8 7 6 9 10 9 11 14 14 14 14 13 13 13 11 10 11
17 17 16 16 17 17 17 17 16 16 15 15 15 14 14 14 13 12 12 12 11 9 6 5 5 8 10 9 13 19 20 22 23 23 21 17 15 14 11 10 12 17 18 17 19 22 18 11 13 14 5 5 9 4 3 10 9 7 7 6 6 8 10 13 12 9 8 5 7 11 8 7 7 7 8 10 13 14 14 14 13 13 12 11 11 11 11 11
17 17 17 16 16 16 17 17 16 16 15 15 14 14 14 14 14 12 11 12 11 9 7 5 6 8 9 11 16 21 22 22 21 20 18 13 10 10 8 8 10 14 16 15 17 19 14 10 13 12 6 7 5 5 4 9 8 8 8 6 6 6 8 13 12 11 9 5 8 12 7 6 7 6 2 5 14 15 14 13 12 11 10 10 11 10 10 9
17 17 17 17 16 16 16 16 16 16 15 15 14 14 14 14 13 11 11 12 11 10 7 5 7 8 10 13 16 17 14 14 16 14 11 8 8 8 7 8 10 13 15 13 13 16 12 12 13 10 8 5 3 7 8 7 7 9 8 7 7 6 7 12 10 11 9 5 9 11 4 6 7 6 4 7 13 14 14 13 11 11 9 8 8 8 9 7
18 17 17 17 16 16 16 16 16 15 15 14 13 14 14 13 12 11 11 11 11 9 6 7 8 7 9 8 5 7 8 9 9 7 6 6 7 7 5 9 9 12 15 12 12 14 11 11 10 9 9 8 7 9 8 7 8 9 9 7 9 9 7 10 8 8 7 7 11 11 5 7 7 7 9 10 14 15 15 15 13 14 11 8 7 7 8 5
18 17 17 17 17 16 16 16 15 15 14 13 13 14 13 12 11 11 11 10 10 9 7 7 7 7 9 8 6 6 5 5 6 6 8 8 8 8 7 9 10 13 15 13 13 14 11 10 8 7 8 8 10 10 9 10 9 8 9 7 9 12 9 9 9 8 8 9 11 8 4 9 11 12 12 11 13 12 13 15 14 12 12 11 8 8 9 5
17 17 17 18 17 17 17 16 15 14 13 12 13 14 13 12 11 10 10 9 7 7 7 6 5 5 8 9 9 6 3 6 10 12 13 10 10 10 10 10 11 15 15 12 13 14 11 9 8 8 9 10 11 11 11 11 11 11 11 8 8 11 10 9 9 9 11 12 10 8 8 10 12 12 13 11 10 8 9 12 13 11 12 12 9 9 8 5
17 17 17 18 18 17 16 15 14 14 12 12 14 13 11 10 9 9 10 9 5 5 4 5 10 7 4 3 5 5 8 12 13 12 10 9 10 11 11 11 13 16 15 11 14 14 11 8 9 10 12 13 14 15 12 7 9 13 14 10 8 10 8 6 9 8 10 13 11 10 10 11 12 12 12 11 9 10 11 10 11 10 11 11 9 9 8 4
17 17 18 18 18 16 15 14 13 13 12 12 11 10 8 6 6 7 10 10 10 9 6 5 12 12 10 6 3 8 12 9 9 8 7 7 10 12 11 11 14 14 13 13 14 14 11 9 12 13 15 17 17 18 12 3 6 12 13 11 9 10 7 8 10 7 7 10 9 9 10 11 12 11 12 11 10 12 13 12 11 10 9 9 10 11 10 6
18 18 18 18 17 16 14 12 11 12 11 10 9 7 6 7 6 4 4 10 16 18 16 12 13 15 16 14 10 9 9 6 7 8 8 7 11 14 11 13 15 12 13 16 14 11 12 12 14 16 15 17 18 17 11 4 6 10 11 11 9 8 8 9 10 7 6 7 7 8 10 10 10 10 10 11 12 12 13 13 12 13 11 9 11 13 12 8
18 18 18 18 17 16 13 11 10 11 10 10 10 10 9 9 7 4 4 7 12 18 19 16 16 18 19 20 16 6 5 8 9 10 10 10 13 14 12 14 15 13 15 16 12 11 12 12 16 18 15 16 17 15 11 7 8 7 8 10 8 8 10 9 9 9 8 6 8 10 9 8 9 9 9 10 10 9 11 12 13 14 12 11 11 12 12 9
18 17 17 17 17 15 12 11 10 9 10 11 13 13 10 8 5 3 5 7 9 13 15 15 16 17 19 20 13 8 8 11 9 9 11 12 13 13 13 15 15 15 17 17 14 12 11 12 16 17 14 15 16 14 12 8 7 7 8 9 8 10 10 7 9 10 8 6 11 13 9 7 8 8 9 8 7 7 9 11 12 12 12 12 12 11 11 10
18 16 17 17 16 13 10 10 8 9 11 12 15 14 8 5 4 4 5 6 8 9 13 15 15 15 18 15 10 13 11 10 10 8 10 14 14 12 13 15 16 15 16 19 18 14 11 11 14 15 14 16 15 15 15 9 7 8 8 8 9 11 9 7 11 11 9 9 13 14 8 5 7 8 7 7 7 8 9 12 11 10 11 12 11 9 10 11
18 15 16 15 14 12 9 8 8 9 10 11 14 12 8 6 5 4 3 5 7 7 12 15 12 14 17 11 10 12 9 9 13 10 9 13 14 12 11 12 12 14 17 21 18 14 11 10 14 16 16 16 15 15 16 12 8 8 7 5 6 12 11 13 16 13 9 9 13 13 7 6 8 8 8 7 9 9 9 12 12 11 11 11 10 9 10 12
18 14 14 13 12 10 7 5 4 5 8 10 9 8 9 7 6 5 4 4 6 6 10 12 10 11 15 13 11 10 8 10 13 13 11 12 11 9 10 10 8 12 18 17 12 9 9 12 14 17 17 18 16 14 16 15 8 7 9 4 5 12 14 16 16 12 8 8 12 12 8 5 7 9 11 10 10 11 10 12 13 12 11 10 10 10 12 13
18 13 12 13 13 9 6 3 2 3 5 5 4 5 7 7 7 5 4 4 5 7 11 10 8 10 13 14 16 12 5 6 11 14 15 13 10 9 10 12 9 10 14 11 9 7 10 15 16 17 17 16 14 12 15 17 9 5 12 10 7 11 14 14 13 10 7 8 11 11 8 6 6 8 12 12 10 11 11 12 13 13 12 10 11 11 12 13
15 11 11 13 12 9 7 5 4 4 3 1 2 4 4 7 8 4 3 5 2 6 9 8 5 7 10 14 20 13 2 8 13 13 15 15 12 8 9 14 12 12 14 12 9 8 11 16 16 18 17 13 12 12 14 17 10 6 12 12 8 9 11 11 10 7 6 8 9 10 9 8 7 8 11 11 11 11 12 14 14 15 14 11 12 12 11 12
13 10 9 10 9 6 6 5 5 5 3 1 2 4 5 7 8 3 4 4 2 4 5 7 7 8 11 13 19 16 6 5 8 11 16 15 12 7 7 13 14 13 15 14 9 7 9 14 14 16 13 10 13 12 14 17 10 8 12 11 8 7 8 8 7 6 7 8 9 12 12 10 7 9 10 10 12 12 13 14 14 15 16 13 12 12 11 11
10 8 8 8 7 3 3 4 6 7 4 1 3 6 7 6 4 4 5 2 2 4 4 7 9 11 15 14 15 17 12 6 6 13 15 13 12 8 5 10 14 11 12 13 9 6 10 12 12 12 11 10 12 10 14 17 11 9 11 10 8 7 6 5 5 4 7 8 10 14 15 12 7 8 10 10 12 15 14 14 14 15 16 14 13 12 11 11
9 8 6 6 6 3 2 2 3 4 2 1 3 7 6 3 3 5 4 1 0 4 5 8 11 13 18 16 13 16 13 7 10 16 14 12 13 11 7 10 11 10 10 11 9 8 13 13 11 10 9 10 11 10 13 16 12 10 10 9 8 7 5 5 5 4 7 8 9 14 15 12 9 7 11 12 12 16 16 16 18 19 18 16 13 12 11 10
9 8 6 5 4 4 3 2 0 1 2 3 5 5 3 3 4 4 2 0 0 3 5 10 12 13 17 16 14 16 13 7 13 18 16 14 13 12 13 11 10 11 11 11 10 10 12 12 11 10 9 11 12 11 11 12 12 11 11 10 9 8 7 8 8 7 8 5 5 11 13 10 7 5 12 16 15 15 16 16 18 19 19 16 14 13 11 10
10 8 5 2 2 2 3 2 1 2 0 3 5 4 3 4 3 3 2 2 2 3 2 9 12 13 16 14 13 16 12 9 15 17 16 16 13 14 16 15 14 12 10 12 12 10 10 10 12 12 10 12 14 11 10 11 12 13 12 11 10 9 8 9 8 8 8 4 4 9 9 8 7 4 8 15 15 15 15 16 17 18 17 15 14 13 12 11
10 7 3 1 1 2 2 2 3 1 1 3 4 3 5 5 2 1 2 3 3 7 3 9 12 14 14 11 14 15 9 10 16 17 17 16 12 13 14 16 18 13 8 12 10 10 11 8 12 13 10 13 16 12 11 11 12 13 11 10 10 7 7 8 7 9 10 7 7 9 7 6 7 3 1 6 12 14 13 14 16 16 15 14 13 13 13 13
7 4 1 1 2 2 3 4 3 2 3 4 4 4 5 5 3 2 3 2 4 8 4 6 11 13 11 9 15 15 4 8 17 16 15 14 12 13 13 14 19 15 11 12 7 10 11 7 12 13 8 14 17 13 13 13 11 11 10 10 10 8 6 4 1 2 6 7 7 9 5 1 2 3 1 3 9 14 14 15 17 16 15 14 13 13 13 13
3 1 1 1 1 2 3 5 5 4 4 3 4 5 5 5 3 2 3 2 4 9 8 4 11 11 9 8 14 13 2 6 16 13 11 14 13 14 14 12 16 16 12 10 7 9 9 7 15 14 7 14 17 12 13 12 8 8 10 10 8 6 5 5 3 5 5 6 7 8 6 3 3 4 4 6 11 15 15 16 17 17 17 16 13 13 14 13
1 1 1 1 1 1 2 4 6 5 4 4 5 4 3 3 2 0 1 2 3 7 7 4 10 8 9 10 11 13 8 8 15 11 10 13 12 14 16 13 15 16 13 10 6 6 6 7 14 15 11 14 15 11 13 14 9 7 9 9 6 2 3 5 5 5 6 7 5 8 10 8 7 5 7 11 14 15 16 17 17 17 17 17 15 14 14 14
2 2 1 2 1 1 2 4 6 5 4 4 6 6 2 2 3 2 2 3 4 6 6 3 7 7 9 11 11 14 12 11 13 11 10 11 10 13 15 12 14 17 15 11 7 5 5 6 10 13 12 13 13 11 12 14 11 6 8 11 8 5 6 7 6 6 9 9 5 9 12 10 9 7 10 15 16 17 19 18 18 19 19 17 15 16 16 15
3 3 1 1 1 2 3 3 4 4 4 4 6 4 1 2 4 4 4 4 4 4 5 2 6 7 8 11 13 13 12 12 12 10 9 9 8 13 14 11 13 16 14 12 8 6 6 4 8 11 13 13 12 10 11 12 9 7 8 10 9 7 7 7 7 5 7 8 6 8 9 8 8 8 13 18 19 21 22 20 20 21 20 18 16 16 16 16
3 3 0 2 1 2 2 2 3 4 5 5 5 3 2 4 5 5 5 6 4 4 3 1 5 8 8 12 14 10 9 13 13 9 8 8 8 12 14 12 13 15 15 14 9 8 6 3 6 10 11 11 10 9 11 12 12 9 9 10 10 6 3 5 8 7 6 7 7 7 6 6 6 8 13 19 20 22 23 22 21 20 20 19 17 17 17 15
3 2 1 3 3 3 1 3 4 4 4 5 6 5 5 6 5 6 7 8 7 6 4 3 1 4 7 12 12 9 8 11 11 7 7 9 8 9 13 14 14 15 15 13 9 8 6 4 7 9 9 9 10 11 14 12 13 12 9 9 11 8 5 6 8 7 7 6 6 6 6 5 5 7 12 17 18 19 21 21 18 19 21 19 17 18 18 16
3 3 2 3 3 3 3 4 3 2 4 5 5 5 7 6 5 5 5 6 7 6 4 3 2 2 6 10 10 9 9 9 10 7 7 10 8 7 13 16 15 15 12 9 9 6 3 4 7 8 8 9 7 10 14 12 12 14 11 10 11 9 9 9 7 8 8 6 4 5 5 3 3 3 8 12 13 14 17 18 15 15 17 17 18 19 18 17
2 3 1 3 3 3 4 4 3 2 4 5 5 7 8 5 4 4 2 3 5 5 4 3 3 2 4 7 10 12 10 7 8 7 8 12 7 6 16 20 17 16 12 8 9 6 2 4 7 7 8 8 5 6 10 10 10 12 12 11 11 10 11 9 6 6 8 8 6 5 5 4 3 1 4 7 10 13 14 15 13 12 12 15 19 19 17 16
3 3 1 2 3 3 4 4 3 4 5 7 7 8 6 4 4 4 3 2 2 2 3 4 4 2 3 6 9 12 9 5 6 6 8 11 5 4 17 24 19 16 12 8 8 7 4 6 7 7 8 8 7 8 10 11 10 9 9 12 12 12 13 11 7 5 7 11 11 9 6 4 4 2 6 7 10 13 13 12 13 13 13 15 17 17 16 16
3 2 2 3 4 4 4 3 4 5 6 8 9 7 6 2 4 3 4 3 1 1 0 3 2 2 5 6 8 10 7 4 5 5 7 9 5 4 16 24 20 16 13 9 9 8 5 6 7 7 8 9 9 8 8 10 9 8 9 13 14 15 15 11 7 6 7 10 12 10 7 4 4 4 10 12 11 13 14 13 13 14 15 15 14 13 14 15
3 1 1 2 3 3 4 4 4 4 5 7 6 6 9 7 2 0 3 2 1 1 1 1 1 4 9 9 9 10 8 6 6 7 9 8 5 6 14 20 20 17 11 8 9 8 4 5 8 8 6 6 8 7 6 8 10 10 12 14 15 15 15 12 8 8 7 7 9 11 8 5 6 8 13 15 14 14 15 15 15 15 16 16 15 13 14 15
2 1 2 2 2 2 3 3 2 3 5 6 4 5 8 9 7 2 0 1 2 2 1 2 3 7 12 12 10 9 9 9 8 9 10 8 7 9 11 14 17 15 11 8 10 8 4 6 9 8 3 1 1 4 6 8 12 13 14 15 14 15 16 14 11 9 8 7 8 10 10 8 9 12 15 17 16 16 16 17 16 16 17 16 16 16 17 16
2 1 1 3 3 4 4 5 6 7 6 4 2 5 8 10 10 6 3 3 3 2 1 3 5 6 10 11 8 8 9 9 9 9 9 8 10 11 10 10 12 11 11 11 12 8 5 6 9 9 4 2 4 5 4 6 10 12 14 15 15 16 18 17 14 13 10 8 6 8 12 12 11 14 17 18 19 18 18 17 16 16 17 17 17 18 18 18
3 2 3 4 4 6 7 8 9 8 5 3 1 4 8 10 10 7 4 3 3 5 4 4 8 6 7 8 8 8 7 6 7 7 7 9 11 11 10 9 8 8 11 13 10 7 6 5 7 9 7 4 2 3 2 3 6 8 12 15 16 17 18 17 16 16 14 11 8 7 12 13 9 11 16 16 15 14 14 15 16 18 19 19 19 19 19 19
3 3 4 5 5 6 7 7 7 5 4 5 4 5 7 8 9 7 4 5 6 6 6 8 9 6 7 7 7 7 5 4 4 6 7 9 9 9 8 8 8 10 13 12 8 6 6 3 6 8 7 6 5 2 2 4 4 7 10 13 15 16 17 17 16 16 14 13 11 8 11 10 4 6 11 13 13 13 15 18 19 19 20 21 20 20 19 19
3 4 5 5 5 5 6 6 6 5 5 5 6 6 7 8 9 7 4 6 7 5 6 9 8 5 8 9 8 8 6 6 4 3 3 4 4 5 5 6 10 12 11 9 8 7 6 3 5 7 7 7 7 5 4 4 5 8 11 12 14 14 14 14 13 13 13 14 12 10 10 8 5 7 11 14 15 16 18 20 19 19 20 22 22 21 20 19
4 4 4 4 4 4 6 6 6 5 4 5 7 8 7 8 9 7 4 4 4 3 5 8 7 3 7 9 8 7 6 5 3 3 2 1 2 3 2 5 12 13 10 9 7 7 8 5 4 7 7 6 6 5 4 4 7 8 7 7 9 12 11 10 8 10 13 13 11 10 11 8 9 12 14 15 16 18 19 20 19 20 21 22 21 21 20 19
Wind_Direction
335 332 330 329 324 320 319 320 318 310 296 279 280 286 289 298 304 310 315 317 321 321 323 324 324 327 326 324 323 318 318 313 304 292 268 261 254 240 237 235 208 193 208 234 223 221 191 191 188 182 195 188 205 201 179 192 189 194 209 220 225 226 226 204 202 197 193 141 132 84 8 318 316 240 206 181 206 197 170 174 151 128 84 95 112 123 136 137
332 331 331 329 327 323 319 316 311 311 309 296 282 276 278 287 294 303 311 314 317 320 321 322 324 325 326 326 320 319 318 308 295 282 268 267 270 250 238 240 234 208 212 221 214 213 197 193 184 183 199 188 189 183 173 183 191 203 212 218 230 232 209 175 208 206 222 211 45 350 355 319 310 274 191 189 187 180 172 166 159 137 111 115 122 131 138 138
329 328 328 328 327 324 321 317 311 306 306 306 298 286 279 277 285 292 301 309 312 317 318 319 323 321 326 325 317 320 316 303 289 271 263 261 257 246 234 233 233 224 223 230 223 216 217 208 187 189 202 200 191 183 186 182 190 214 223 223 232 227 161 176 216 227 236 290 318 325 328 309 301 216 192 196 179 178 184 171 172 160 140 142 137 139 142 141
326 326 326 325 324 323 321 318 315 307 302 303 303 297 288 278 275 280 290 301 306 311 315 319 321 319 326 322 315 322 315 295 274 169 106 109 111 269 235 231 227 222 223 233 233 217 227 222 195 198 205 206 194 193 199 181 185 209 216 232 239 197 202 202 204 222 246 306 307 312 312 304 157 175 203 191 177 185 192 174 179 168 148 148 145 146 147 143
321 322 324 323 320 320 319 319 318 313 305 300 298 299 298 286 274 272 280 292 300 305 312 316 319 322 324 320 319 321 305 282 128 97 97 76 32 22 331 267 225 217 213 216 217 207 214 209 196 201 208 208 190 195 204 189 198 214 217 237 251 191 216 194 181 217 259 291 287 289 303 327 130 210 206 194 183 184 186 161 165 155 145 149 149 148 147 145
317 317 319 319 319 317 316 317 318 316 310 302 298 298 299 293 280 270 270 286 294 300 309 314 320 321 319 324 321 305 280 264 73 95 109 48 17 355 339 300 219 204 200 203 205 200 204 200 194 197 205 210 196 197 205 193 204 224 220 226 227 220 221 177 173 205 253 264 277 290 308 319 264 227 189 197 171 56 17 143 142 142 143 148 149 149 149 147
311 313 314 315 316 315 314 314 314 316 312 305 298 296 295 295 287 274 266 275 287 294 301 307 317 317 320 326 310 275 255 264 293 223 212 357 356 350 351 309 205 189 189 197 199 198 198 195 196 196 200 208 202 200 202 191 200 226 227 210 218 227 227 231 235 233 248 265 284 298 296 279 260 230 175 183 120 60 46 134 132 136 141 146 149 152 149 147
308 309 309 311 312 312 312 311 311 312 313 307 298 294 291 290 287 278 266 263 279 286 291 304 313 317 324 327 305 271 252 257 266 265 267 295 331 346 355 309 188 183 188 196 196 196 195 196 197 195 203 206 200 197 192 190 202 224 231 208 209 218 221 232 243 244 252 267 276 274 271 267 255 207 160 153 108 88 125 133 133 135 142 148 150 148 146 148
311 309 306 305 306 308 308 308 309 308 311 308 302 296 290 287 284 279 268 257 266 274 285 304 305 311 320 318 298 281 262 264 271 266 278 299 323 337 340 197 186 187 194 198 196 198 195 197 197 196 215 207 194 196 189 198 207 216 224 222 211 212 210 219 229 239 248 256 258 254 252 258 203 172 133 114 112 116 127 136 140 141 147 150 149 147 146 148
314 310 305 303 302 303 304 304 305 306 308 307 305 300 292 287 283 278 269 256 252 263 279 298 301 306 307 302 280 266 290 354 311 284 312 323 319 325 318 224 199 199 203 199 197 200 199 201 197 196 240 215 194 199 194 206 211 201 220 225 226 227 217 217 230 237 244 240 238 243 228 125 161 182 138 113 124 132 137 141 146 147 150 149 146 144 140 137
318 312 306 303 300 299 299 300 301 302 304 305 306 304 297 291 284 278 269 255 244 253 273 290 296 295 284 282 262 254 322 11 340 324 317 316 310 306 295 258 219 210 209 202 198 199 202 204 195 189 234 207 191 201 202 212 221 170 214 222 226 234 230 226 234 230 231 228 223 228 187 136 169 188 120 128 141 143 141 142 148 148 147 145 139 133 129 126
322 317 311 305 301 298 295 294 296 297 300 303 304 304 302 296 286 279 270 254 240 240 261 282 288 287 277 269 248 246 271 300 308 309 303 303 299 290 280 267 234 216 213 206 198 196 201 205 197 194 198 187 187 198 204 205 216 205 207 227 215 218 228 223 222 219 217 213 199 203 183 149 152 130 117 128 135 132 129 133 140 136 133 129 122 114 109 102
322 321 316 310 304 300 296 291 291 293 297 300 302 302 300 298 289 280 271 253 238 233 242 266 281 280 273 265 255 254 267 285 296 298 295 294 289 281 270 253 232 219 217 213 201 193 198 202 203 203 205 213 189 151 169 185 205 213 210 241 208 200 218 209 205 204 206 198 185 202 194 145 126 113 117 128 131 129 126 131 133 124 119 115 114 111 104 101
320 320 319 315 308 302 298 292 288 289 292 296 300 299 296 296 290 282 276 258 239 230 233 249 270 273 268 266 270 268 271 279 285 286 286 286 277 269 252 228 221 214 214 223 206 188 190 197 206 209 215 239 198 128 168 178 194 207 202 228 223 212 196 181 188 193 191 177 191 217 215 150 124 93 92 149 143 140 134 133 130 121 119 125 128 119 109 114
320 319 318 316 313 305 299 293 287 285 287 291 295 296 293 292 289 279 273 261 238 223 220 239 255 264 274 274 275 275 269 264 269 274 273 271 262 253 223 199 205 203 204 220 201 177 179 188 200 208 196 220 210 179 193 183 191 203 202 206 212 220 162 150 172 193 194 167 191 223 206 142 116 102 200 191 148 136 128 124 117 107 101 106 108 99 101 111
323 320 318 316 314 308 301 293 286 282 281 286 290 292 291 290 289 277 271 260 235 215 209 241 247 249 275 288 290 270 246 237 256 270 264 256 253 247 203 181 186 189 192 201 185 168 177 189 195 210 193 190 201 197 194 188 193 199 208 203 193 202 168 143 155 184 198 164 183 222 200 132 112 130 179 168 136 127 126 127 120 112 106 103 103 99 103 109
324 321 320 317 314 309 303 294 286 279 276 282 286 287 289 291 288 278 273 257 227 207 207 240 247 244 260 274 290 274 241 249 278 291 280 262 251 246 202 172 173 175 175 179 178 172 182 190 187 203 202 197 199 199 198 197 194 187 204 210 187 195 186 152 146 161 191 181 181 203 154 118 122 145 162 145 124 118 127 135 130 124 124 125 127 119 114 132
324 323 321 317 314 309 304 296 286 277 274 277 280 282 286 286 282 276 268 252 221 194 207 230 233 242 242 242 267 291 318 303 296 294 284 255 233 231 200 173 166 165 162 166 178 180 185 186 185 193 198 201 198 200 204 200 194 183 190 201 182 191 198 167 144 152 185 191 173 146 120 121 133 149 150 128 111 113 133 141 135 135 133 128 126 116 113 146
323 322 321 319 314 308 303 296 285 276 271 270 275 282 284 279 271 258 240 228 194 170 204 196 190 223 281 229 238 312 323 300 288 281 264 224 206 210 201 180 168 169 166 166 178 184 185 182 192 199 198 198 196 200 204 204 204 188 183 194 182 181 186 143 124 141 182 185 167 147 137 138 147 152 140 129 138 152 154 148 137 138 140 133 125 110 103 130
322 321 321 319 315 308 303 296 285 274 266 264 272 279 271 254 246 237 217 214 216 220 257 228 197 228 279 282 271 332 326 293 267 253 230 207 188 188 194 182 173 179 180 172 173 180 185 190 198 201 199 194 194 201 201 205 212 188 181 193 190 177 156 116 123 137 181 177 153 145 141 137 142 140 133 143 166 167 158 151 140 137 142 136 127 120 118 117
320 319 320 320 318 310 303 295 281 269 259 256 264 263 252 246 252 261 218 223 226 226 244 251 230 242 264 275 289 329 335 295 270 256 231 208 187 181 181 180 177 183 188 177 165 171 190 205 203 200 199 191 191 199 192 174 193 188 183 186 188 175 137 118 135 141 172 170 137 138 140 130 130 130 137 153 164 167 161 153 144 139 138 129 125 124 117 102
319 317 319 322 320 313 304 292 275 265 252 245 247 242 248 259 270 319 306 256 235 224 232 240 243 251 257 266 272 283 291 276 274 247 209 193 197 188 174 181 184 181 183 177 165 173 195 211 202 196 198 189 185 189 183 177 187 190 189 191 188 157 125 116 136 151 173 172 149 145 131 112 114 130 151 154 154 163 161 151 146 144 139 127 120 118 113 105
318 317 318 321 322 315 300 286 277 263 246 237 240 242 254 262 257 289 279 274 259 227 219 225 233 240 247 255 246 215 237 254 255 229 192 188 201 193 179 183 187 183 181 180 179 181 193 206 196 188 188 181 176 182 187 189 196 198 196 197 179 152 149 146 144 155 166 158 148 140 123 116 119 126 138 133 128 139 144 147 150 150 148 140 135 134 134 129
317 315 315 320 322 313 294 288 273 250 242 238 244 247 253 249 226 244 253 266 270 227 208 215 222 228 239 247 210 197 228 239 238 229 191 191 197 192 190 187 186 186 184 185 188 190 195 193 180 175 176 177 176 182 190 191 191 194 203 206 173 158 170 154 141 147 146 143 147 138 129 146 142 135 133 125 134 142 144 153 157 152 148 144 141 137 130 124
315 311 313 317 321 312 295 285 257 238 239 239 247 244 231 222 212 219 235 259 262 221 204 209 216 229 231 223 181 192 231 236 232 227 193 200 201 188 190 192 192 189 183 186 191 197 196 171 165 174 181 185 184 185 192 194 186 183 203 227 162 151 147 135 141 149 148 158 166 165 169 163 158 165 161 149 154 159 162 165 163 156 152 148 144 131 119 121
314 309 309 313 321 315 290 275 253 244 242 237 245 233 214 209 196 202 219 262 256 200 181 187 192 205 203 192 174 188 236 237 224 220 210 219 224 210 192 185 199 196 183 183 192 202 181 162 173 184 184 187 189 191 192 194 198 181 178 173 129 143 145 145 156 166 175 178 178 194 209 163 161 180 174 168 163 162 173 175 167 165 169 162 147 140 139 139
316 311 305 309 316 300 267 298 328 265 252 242 233 209 205 196 185 195 213 254 247 178 164 171 172 170 176 176 169 179 228 190 181 201 208 214 226 238 210 181 188 193 176 175 193 194 166 167 181 185 183 188 193 195 188 193 208 163 153 155 147 152 154 160 173 188 197 170 170 203 218 181 176 179 170 169 162 161 176 180 172 174 180 166 147 149 156 153
319 312 303 312 314 283 265 305 309 267 292 340 197 191 177 167 160 160 219 233 206 151 159 165 153 156 168 170 171 184 206 136 160 180 188 199 205 225 213 184 181 175 169 182 185 159 162 174 177 181 186 190 195 192 178 190 206 128 141 163 167 166 165 173 188 194 187 172 179 198 202 199 186 164 165 171 170 174 182 182 181 182 182 167 153 155 158 153
324 313 305 317 318 278 261 277 274 277 303 13 194 174 149 157 152 151 236 225 161 151 158 155 153 157 163 166 178 198 215 173 181 162 164 190 204 235 232 186 179 167 171 197 189 145 170 183 177 182 192 191 194 187 170 188 198 124 143 165 166 172 172 183 202 186 177 197 202 188 190 208 187 158 171 181 183 189 188 186 185 184 183 172 163 162 156 150
329 315 310 322 317 281 255 247 254 272 264 219 201 163 148 161 179 210 217 200 163 162 131 151 169 164 162 165 179 199 208 198 164 147 158 180 189 221 237 176 178 166 169 202 207 156 159 174 181 190 201 193 184 172 169 188 187 137 152 163 159 176 175 188 215 189 187 215 211 188 193 216 206 171 179 189 193 190 183 183 182 183 182 172 165 165 157 148
331 320 318 327 318 296 274 245 258 270 237 198 183 158 151 176 224 226 195 125 184 164 144 161 166 159 166 170 173 190 199 180 156 157 163 171 175 189 182 163 173 166 170 197 195 155 155 171 183 188 203 192 171 165 174 186 180 162 176 176 165 175 176 191 202 198 212 221 206 187 192 217 227 194 183 193 199 188 180 181 181 182 181 172 165 163 155 146
327 319 320 329 319 295 277 289 20 219 206 202 180 157 178 223 227 238 230 3 276 185 168 164 161 162 173 177 169 177 188 174 166 166 164 169 174 181 182 175 172 171 178 184 173 159 164 175 175 173 193 192 176 170 174 181 184 187 190 183 180 177 178 197 194 198 216 212 187 181 183 211 232 183 178 190 196 188 181 180 180 180 179 172 165 158 149 145
323 313 313 325 315 288 276 285 119 113 172 213 196 186 244 254 230 239 283 353 359 323 202 164 163 165 173 178 167 172 184 169 169 172 167 172 174 179 188 186 181 183 181 174 170 163 162 169 175 175 184 196 195 183 175 181 186 194 194 187 192 185 180 198 192 194 206 165 144 179 180 207 210 143 166 188 190 186 179 176 178 178 174 166 159 151 144 145
319 303 292 251 241 244 229 181 137 85 317 223 215 224 243 267 286 277 354 13 333 319 277 167 160 162 175 181 164 168 177 161 168 173 168 174 178 179 188 186 185 192 177 171 177 172 166 168 180 183 176 187 200 199 182 179 184 195 199 196 204 198 186 198 196 198 201 167 149 171 181 210 200 136 88 193 183 180 177 172 170 169 165 157 150 145 142 146
319 294 272 175 196 204 208 201 193 257 251 207 220 243 243 264 293 332 7 7 321 332 326 168 158 161 175 177 164 168 179 161 171 174 170 177 181 177 182 181 185 192 181 172 174 176 177 163 168 179 176 177 193 204 186 179 187 193 200 204 209 212 194 180 200 188 177 166 161 175 188 209 159 127 62 223 183 172 170 167 165 164 163 159 153 151 151 151
338 214 184 148 165 172 201 210 208 227 234 224 237 248 257 274 300 355 12 354 322 333 325 191 162 164 166 162 167 173 200 172 171 172 172 179 182 178 179 177 182 191 185 172 165 177 180 150 154 167 177 181 190 198 188 189 187 180 200 207 200 215 201 155 104 75 119 176 178 183 193 152 150 158 152 190 185 169 167 170 168 168 168 168 165 161 159 157
358 211 137 104 86 148 178 185 183 206 234 245 249 261 277 277 278 331 13 315 291 305 302 181 160 175 167 157 168 170 166 167 172 176 175 178 184 180 178 176 181 192 193 178 166 178 173 138 154 169 174 183 191 188 192 208 205 181 195 188 152 179 217 185 176 139 169 207 183 184 201 186 186 179 150 177 182 171 172 174 173 175 174 174 172 165 161 158
296 274 114 73 7 166 169 175 180 204 237 247 251 257 253 201 201 200 215 271 276 279 279 197 167 188 171 161 166 166 162 163 173 178 171 176 184 177 174 170 177 192 196 182 173 194 190 139 155 178 174 174 186 187 195 212 217 225 207 180 167 189 196 198 202 179 194 210 186 192 204 199 202 184 157 176 182 177 178 176 178 181 179 176 170 164 162 158
283 271 230 68 24 162 160 177 191 227 245 251 261 256 225 229 238 234 230 246 264 264 270 217 163 180 178 164 158 162 169 167 168 170 168 178 179 173 175 166 172 187 190 186 181 186 204 160 153 181 175 165 179 195 200 193 194 237 226 190 193 213 204 202 203 190 199 203 189 189 195 205 213 181 165 179 183 181 181 182 186 184 181 178 168 163 163 160
274 279 162 109 158 164 160 202 224 247 244 255 283 289 293 283 265 255 235 227 248 264 272 350 145 163 167 159 153 159 172 166 166 168 171 175 163 170 180 171 170 179 181 192 191 171 193 194 155 171 171 169 183 199 203 189 181 205 213 191 193 206 212 206 200 202 214 209 191 182 193 213 203 169 174 185 186 185 185 187 189 185 181 177 168 164 164 160
264 285 135 140 174 177 224 254 240 257 263 268 283 278 280 286 274 266 242 219 236 264 273 298 183 150 150 153 152 153 158 159 166 170 165 166 159 167 179 173 168 171 175 190 188 173 196 197 160 163 172 186 192 193 203 202 190 194 202 198 195 193 194 199 196 199 218 225 206 195 206 200 166 167 187 191 189 188 188 188 186 182 180 175 168 166 163 160
275 320 83 137 192 211 258 272 243 248 266 270 288 286 280 280 271 276 255 212 224 241 243 245 221 158 152 152 147 149 155 156 165 169 159 165 166 163 173 177 174 168 173 183 170 162 210 200 166 166 181 192 177 183 206 214 203 200 207 207 201 197 200 203 196 188 202 221 215 216 217 160 112 187 200 193 187 183 186 188 182 177 176 171 167 166 161 159
293 330 96 156 212 241 277 283 253 247 261 273 290 281 271 270 272 283 276 204 213 213 199 172 162 159 151 151 149 152 152 148 161 168 162 167 165 149 168 178 178 174 180 185 165 151 193 202 174 161 175 186 163 176 210 223 216 209 208 210 209 203 202 213 216 189 193 203 192 204 215 153 108 225 213 193 177 171 180 183 172 166 167 166 165 161 157 158
295 290 230 189 208 238 278 291 287 288 291 294 296 291 284 264 257 285 302 244 220 200 161 134 129 129 139 152 151 149 147 145 160 164 165 170 155 130 173 179 179 179 186 184 168 162 182 197 184 166 170 182 184 190 203 210 215 217 210 208 213 206 199 210 220 191 195 204 199 210 216 155 112 167 193 191 177 172 175 168 161 164 162 161 161 157 155 156
292 256 233 229 222 238 267 289 291 287 300 309 311 325 345 312 226 281 319 296 269 298 159 113 98 122 144 152 143 140 146 145 146 151 160 161 123 130 183 181 179 185 186 180 174 171 187 200 193 187 181 185 196 198 197 196 200 214 214 208 210 209 201 202 204 197 206 204 200 214 216 139 105 167 183 183 181 178 174 162 160 162 156 155 157 153 153 155
310 290 272 250 224 236 257 262 265 272 305 324 328 344 1 14 52 266 301 309 36 341 334 101 129 147 150 152 141 140 148 139 133 148 154 146 115 143 176 178 184 187 169 158 175 177 191 205 205 216 210 199 206 196 179 186 190 200 208 208 210 210 206 206 206 209 214 207 207 217 209 157 144 173 179 179 182 180 174 169 168 163 157 156 155 151 152 156
308 315 328 312 269 260 268 263 271 289 306 322 335 338 352 14 31 51 266 324 327 316 358 101 142 153 156 158 147 139 148 142 129 136 144 133 116 135 157 176 189 177 138 149 188 188 194 196 204 227 242 92 127 127 145 188 198 198 202 205 208 209 210 213 215 217 213 209 211 202 193 184 173 176 180 181 183 183 177 176 174 167 161 157 153 153 156 160
328 310 344 343 310 306 320 318 313 314 314 309 303 327 356 21 23 17 351 297 288 315 17 116 125 142 158 162 151 141 150 149 132 126 133 128 128 139 151 174 186 164 147 178 193 192 211 193 192 215 214 84 58 78 119 196 208 207 208 208 207 209 213 214 216 220 215 215 212 176 183 204 195 180 185 185 185 185 180 177 171 162 159 156 153 157 161 164
335 318 342 351 314 300 309 314 314 321 337 342 317 346 8 22 21 12 340 321 32 26 9 90 111 123 151 163 165 154 145 145 139 135 133 129 136 148 155 167 182 175 178 188 183 192 224 190 174 205 214 185 124 86 114 202 212 217 220 218 213 212 213 213 215 219 215 219 223 181 187 208 199 182 190 186 178 177 174 174 170 164 164 162 160 163 164 165
345 326 327 330 316 307 317 327 324 329 2 15 15 10 11 17 21 25 14 16 42 32 17 61 86 104 130 145 154 135 84 50 113 140 142 134 140 155 159 165 175 179 188 189 171 186 216 173 161 201 220 201 179 170 217 227 231 230 227 224 222 218 215 212 214 217 212 216 223 208 201 208 183 168 180 169 160 169 177 180 176 171 169 168 169 171 167 165
315 296 307 321 324 329 340 348 342 344 10 18 11 3 2 9 16 24 36 36 43 40 23 32 45 89 118 113 100 82 41 11 39 86 118 126 135 148 152 164 167 170 186 188 171 180 203 191 170 200 223 209 189 197 221 233 249 245 236 227 221 221 220 217 214 209 206 212 214 212 218 213 157 146 161 161 167 177 183 184 180 176 174 172 173 174 169 167
311 289 303 314 308 333 347 348 355 9 12 356 353 354 356 1 5 11 33 51 52 39 4 358 1 66 106 83 55 31 353 336 358 23 26 39 95 120 112 165 169 170 179 181 176 185 196 203 191 197 216 209 180 184 216 232 242 241 237 233 224 217 213 209 203 196 204 215 211 210 226 212 156 153 161 166 176 185 188 189 185 180 178 175 173 172 170 169